Regional Weather Roundup
Issued by NWS

Home | Current Version | Previous Version | Text Only | Print | Product List | Glossary Off
Versions: 1 2 3 4 5 6 7 8 9 10 11 12 13 14 15 16 17 18 19 20 21 22 23 24 25 26 27 28 29 30 31 32 33 34 35 36 37 38 39 40 41 42 43 44 45 46 47 48 49 50

000
ASUS43 KMPX 100401
RWRMN
WEATHER ROUNDUP FOR MINNESOTA
NATIONAL WEATHER SERVICE TWIN CITIES/CHANHASSEN MN
1100 PM CDT WED JUL 09 2014


NOTE: "FAIR" INDICATES FEW OR NO CLOUDS BELOW 12,000 FEET WITH NO
SIGNIFICANT WEATHER AND/OR OBSTRUCTIONS TO VISIBILITY. N/A MEANS
CURRENT SKY AND/OR WEATHER CONDITIONS ARE NOT AVAILABLE.

MNZ060>063-068>070-100500-
   Twin Cities Metro

CITY           SKY/WX    TMP DP  RH WIND       PRES   REMARKS
TWIN CITIES    CLEAR     69  55  60 SE6       30.01R
ST PAUL        CLEAR     68  59  73 CALM      30.01R
CRYSTAL        CLEAR     64  57  78 E3        30.00R
BLAINE         CLEAR     64  61  88 CALM      30.01S
LAKEVILLE      CLEAR     61  57  88 CALM      30.02R
EDEN PRAIRIE   CLEAR     69  55  60 E6        30.00R
SOUTH ST PAUL  CLEAR     68  56  67 CALM      30.01R
LAKE ELMO      FAIR      61  59  94 CALM      30.03R
$$
MNZ001>005-007-008-013>017-022>024-027-028-100500-
   Northwest Minnesota

CITY           SKY/WX    TMP DP  RH WIND       PRES   REMARKS
BEMIDJI        CLEAR     53  51  91 CALM      30.01S
HALLOCK        CLEAR     59  54  82 SE5       29.97F
ROSEAU         CLEAR     57  52  82 CALM      29.99S
WARROAD        CLEAR     59  54  82 SW3       29.99S
THIEF RVR FALL CLEAR     61  52  72 CALM      30.00S
CROOKSTON      CLEAR     64  52  63 SE3       29.99F
FOSSTON        CLEAR     54  52  94 CALM      30.01S
DETROIT LAKES  CLEAR     63  55  77 CALM      30.02S
PARK RAPIDS    CLEAR     62  54  74 CALM      30.01S
$$
MNZ006-009>011-018-025>026-100500-
   North Central Minnesota

CITY           SKY/WX    TMP DP  RH WIND       PRES   REMARKS
BAUDETTE       CLEAR     58  52  80 CALM      30.00S
FLAG ISLAND    CLEAR     66  55  68 S8        29.96S
INTL FALLS     MOCLDY    52  51  97 CALM      30.00S
LONGVILLE      CLEAR     54  54 100 CALM      30.01F FOG
GRAND RAPIDS   CLEAR     54  52  94 S3        30.02S
CRANE LAKE     CLEAR     48  46  93 CALM      30.03S
ORR            PTCLDY    54  50  87 CALM      30.00S
COOK           PTCLDY    55  52  88 CALM      30.02S
$$
MNZ012-019>021-037-100500-
   Northeast Minnesota

CITY           SKY/WX    TMP DP  RH WIND       PRES   REMARKS
DULUTH         PTCLDY    57  50  77 CALM      30.03R
ELY            CLEAR     52  46  82 CALM      30.03S
HIBBING        CLOUDY    55  52  89 CALM      30.02R
EVELETH        CLEAR     52  50  93 CALM      30.04R
DULUTH HARBOR  CLEAR     61  55  82 NE3       30.02R
TWO HARBORS    CLEAR     54  48  82 NW3       30.01S
SILVER BAY     CLEAR     48  48 100 CALM      30.02R
GRAND MARAIS     N/A     45  43  93 SW3       30.02R
G MARAIS ARPRT CLEAR     48  45  87 CALM      30.05S
$$
MNZ029>031-032-039>041-046>048-054>057-064-100500-
   West Central Minnesota

CITY           SKY/WX    TMP DP  RH WIND       PRES   REMARKS
FERGUS FALLS   CLEAR     64  52  63 E3        30.00S
WHEATON        CLEAR     63  54  72 E5        30.02R
MORRIS         CLEAR     61  55  82 CALM      30.00S
ALEXANDRIA     CLEAR     64  52  64 CALM      30.03R
WADENA         CLEAR     55  52  88 CALM      30.02R
GLENWOOD       CLEAR     63  54  72 CALM      30.03R
APPLETON       CLEAR     63  55  77 CALM      30.00R
BENSON         CLEAR     61  55  82 E3        30.01S
ORTONVILLE     CLEAR     66  55  68 E6        30.00S
MADISON        CLEAR     66  57  72 CALM      30.00S
WILLMAR        FAIR      64  55  72 CALM      30.02S
$$
MNZ033>034-036-042>043-049>051-058-059-100500-
   Central Minnesota

CITY           SKY/WX    TMP DP  RH WIND       PRES   REMARKS
ST CLOUD       CLEAR     62  57  83 CALM      30.00S
SAUK CENTRE    FAIR      58  53  83 CALM      30.02R
PAYNESVILLE    CLEAR     56  53  91 CALM      30.02S
AITKIN         PTCLDY    57  52  82 CALM      30.01R
PINE RIVER     PTCLDY    57  54  88 CALM      30.05S
BRAINERD       PTCLDY    64  55  72 CALM      30.02R
STAPLES        CLEAR     59  54  82 CALM      30.02S
LONG PRAIRIE   FAIR      59  54  82 CALM      30.02S
LITTLE FALLS   CLEAR     57  54  88 CALM      30.01S
LITCHFIELD       N/A     63  57  82 CALM      30.02S
BUFFALO        CLEAR     64  57  76 CALM      30.02R
MAPLE LAKE     CLEAR     63  59  86 CALM      30.02R
$$
MNZ037-044-045-052-053-100500-
   East Central Minnesota

CITY           SKY/WX    TMP DP  RH WIND       PRES   REMARKS
PRINCETON      CLEAR     63  57  82 CALM      30.02R
MORA           CLEAR     55  54  94 CALM      30.03R
CAMBRIDGE      CLEAR     63  52  67 CALM      30.00S
RUSH CITY      PTCLDY    57  54  88 CALM      30.02R
MOOSE LAKE     PTCLDY    54  52  94 CALM      30.00S
HINCKLEY       FAIR      55  55 100 CALM      30.02R
CLOQUET        CLEAR     57  50  77 CALM      30.03S
MCGREGOR       CLEAR     59  54  82 CALM      30.02S
$$
MNZ071>073-080-081-089-090-097-098-100500-
   Southwest Minnesota

CITY           SKY/WX    TMP DP  RH WIND       PRES   REMARKS
MONTEVIDEO     CLEAR     64  54  68 CALM      30.01S
GRANITE FALLS  CLEAR     67  53  61 CALM      30.02S
CANBY          CLEAR     62  58  84 CALM      30.02S
MARSHALL       CLEAR     66  54  63 MISG      30.01R
REDWOOD FALLS  CLEAR     69  52  54 CALM      30.01R
OLIVIA         CLEAR     64  52  63 CALM      30.01R
PIPESTONE      CLEAR     66  55  68 SE5       30.03R
WINDOM         PTCLDY    63  55  77 CALM      30.03R
WORTHINGTON    CLEAR     64  57  77 SE5       30.04S
JACKSON        CLEAR     64  55  72 E3        30.03S
TRACY          CLEAR     65  55  68 CALM      30.02S
SLAYTON        CLEAR     65  53  64 CALM      30.04R
$$
MNZ065>067-074>077-082>085-091>093-100500-
   South Central Minnesota

CITY           SKY/WX    TMP DP  RH WIND       PRES   REMARKS
MANKATO        CLEAR     66  54  63 E6        30.01S
NEW ULM        CLEAR     66  54  63 CALM      30.01S
ST JAMES       CLEAR     66  55  68 CALM      30.02S
FAIRMONT       PTCLDY    66  54  63 CALM      30.02S
GLENCOE        CLEAR     65  53  65 CALM      30.01R
FARIBAULT      CLEAR     64  55  72 CALM      30.03R
OWATONNA       CLEAR     64  57  77 SE3       30.03S
WASECA         CLEAR     61  50  67 E7        30.04S
ALBERT LEA     CLEAR     63  57  82 CALM      30.03S
$$
MNZ078>079-086>088-094>096-100500-
   Southeast Minnesota

CITY           SKY/WX    TMP DP  RH WIND       PRES   REMARKS
ROCHESTER      CLEAR     63  56  78 SE6       30.05R
RED WING       CLEAR     61  57  88 CALM      30.01S
STANTON          N/A     62  57  84 SW3       30.01R
DODGE CENTER   PTCLDY    64  59  82 SE5       30.04S
WINONA         CLEAR     63  55  77 CALM      30.03S
AUSTIN         CLEAR     63  57  82 E3        30.03S
PRESTON        CLEAR     65  58  77 SE6       30.05S
$$
ABBREVIATIONS USED IN REMARKS
   TC - TEMPERATURES IN CELSIUS
  WCI - WIND CHILL INDEX
   HX - HEAT INDEX
  VSB - VISIBILITY
$$


USA.gov is the U.S. government's official web portal to all federal, state and local government web resources and services.